Location: Unspecified
(0.0000°N, 0.0000°E)
Time: 06:35:50
(UTC+00:00)

Vanguard 1 - Pass Details

Date: 14 December 2018
Orbit: 654 x 3829 km, 34.2° (Epoch: 15 June)

Event Time Altitude Azimuth Distance (km) Brightness Sun altitude
Rises 21:07:03 0° 232° (SW) 7,747 15.4 -43.1°
Reaches altitude 10° 21:18:02 10° 208° (SSW) 6,109 14.6 -45.4°
Maximum altitude 21:25:10 13° 185° (S) 5,259 14.0 -46.9°
Drops below altitude 10° 21:31:05 10° 160° (SSE) 4,929 13.7 -48.1°
Enters shadow 21:36:48 - 137° (SE) 5,122 13.7 -49.2°
